Weather History for Reading, PA

Change the Weather History Date:

Saturday, April 27, 2013

  Actual Average Record
Temperature  
Mean Temperature 54 °F 55 °F  
Max Temperature 70 °F 67 °F 92 °F (1915)
Min Temperature 38 °F 44 °F 33 °F (1987)
Degree Days  
Heating Degree Days 11 10  
Month to date heating degree days 337 382  
Since 1 July heating degree days 4824 5167  
Cooling Degree Days 0 0  
Month to date cooling degree days 15 0  
Year to date cooling degree days 15 0  
Growing Degree Days 4 (Base 50)    
Moisture  
Dew Point 34 °F    
Average Humidity 54    
Maximum Humidity 82    
Minimum Humidity 26    
Precipitation  
Precipitation 0.00 in 0.11 in 1.49 in (1928)
Month to date precipitation 2.26 3.43  
Year to date precipitation 9.30 12.44  
Sea Level Pressure  
Sea Level Pressure 30.37 in    
Wind  
Wind Speed 2 mph (WSW)    
Max Wind Speed 10 mph    
Max Gust Speed 14 mph    
Visibility 10 miles    
Events      
T = Trace of Precipitation, MM = Missing Value Source: NWS Daily Summary

Daily Weather History Graph

Daily Weather History Graph

Search for Another Location

Airport:

Trip Planner

Search our weather history database for the weather conditions in past years. The results will help you decide how hot, cold, wet, or windy it might be!

Date:

Astronomy

Apr. 27, 2013 Rise Set
Actual Time 6:08 AM EDT 7:55 PM EDT
Civil Twilight 5:38 AM EDT 8:24 PM EDT
Nautical Twilight 5:03 AM EDT 9:00 PM EDT
Astronomical Twilight 4:25 AM EDT 9:38 PM EDT
Moon 10:22 PM EDT (4/27) 7:24 AM EDT (4/27)
Length of Visible Light 14h 45m
Length of Day
13h 47m
Waning Gibbous, 95% of the Moon is Illuminated
Apr 27
Waning Gibbous
May 2
Last Quarter
May 9
New
May 18
First Quarter
May 25
Full

Hourly Weather History & Observations

Time (EDT) Temp. Windchill Dew Point Humidity Pressure Visibility Wind Dir Wind Speed Gust Speed Precip Events Conditions
12:54 AM 44.1 °F - 34.0 °F 68% 30.43 in 10.0 mi Calm Calm - N/A   Clear
1:54 AM 43.0 °F - 30.9 °F 62% 30.43 in 10.0 mi Calm Calm - N/A   Clear
3:54 AM 39.9 °F - 32.0 °F 73% 30.43 in 10.0 mi Calm Calm - N/A   Clear
4:54 AM 37.9 °F - 32.0 °F 79% 30.43 in 10.0 mi Calm Calm - N/A   Clear
5:54 AM 37.9 °F 35.5 °F 32.0 °F 79% 30.43 in 10.0 mi NNW 3.5 mph - N/A   Clear
6:54 AM 39.9 °F - 33.1 °F 77% 30.45 in 10.0 mi Calm Calm - N/A   Clear
7:54 AM 45.0 °F - 35.1 °F 68% 30.46 in 10.0 mi Calm Calm - N/A   Clear
8:54 AM 51.1 °F - 34.0 °F 52% 30.46 in 10.0 mi Calm Calm - N/A   Clear
9:54 AM 57.0 °F - 36.0 °F 45% 30.44 in 10.0 mi SSW 3.5 mph - N/A   Clear
10:54 AM 61.0 °F - 32.0 °F 34% 30.43 in 10.0 mi Calm Calm - N/A   Clear
11:54 AM 64.0 °F - 35.1 °F 34% 30.43 in 10.0 mi West 3.5 mph - N/A   Clear
12:54 PM 66.0 °F - 34.0 °F 30% 30.40 in 10.0 mi Variable 3.5 mph - N/A   Clear
1:54 PM 66.9 °F - 35.1 °F 31% 30.37 in 10.0 mi Variable 4.6 mph - N/A   Clear
2:54 PM 66.9 °F - 30.9 °F 26% 30.35 in 10.0 mi Variable 3.5 mph - N/A   Clear
3:54 PM 68.0 °F - 32.0 °F 26% 30.32 in 10.0 mi Variable 5.8 mph - N/A   Clear
4:54 PM 70.0 °F - 35.1 °F 28% 30.30 in 10.0 mi West 5.8 mph - N/A   Clear
5:54 PM 69.1 °F - 35.1 °F 29% 30.30 in 10.0 mi WSW 10.4 mph - N/A   Clear
6:54 PM 66.0 °F - 34.0 °F 30% 30.29 in 10.0 mi SW 9.2 mph - N/A   Clear
7:54 PM 63.0 °F - 32.0 °F 31% 30.29 in 10.0 mi Calm Calm - N/A   Clear
8:54 PM 59.0 °F - 35.1 °F 41% 30.30 in 10.0 mi Calm Calm - N/A   Clear
9:54 PM 59.0 °F - 34.0 °F 39% 30.30 in 10.0 mi Calm Calm - N/A   Clear
10:54 PM 57.9 °F - 33.1 °F 39% 30.29 in 10.0 mi South 3.5 mph - N/A   Clear
11:54 PM 53.1 °F - 35.1 °F 50% 30.29 in 10.0 mi Calm Calm - N/A   Clear